Wind_Speed
51 52 50 49 48 48 49 49 48 47 45 44 42 44 39 37 40 36 37 35 32 30 28 26 27 26 24 22 19 17 15 13 11 11 10 9 7 6 9 11 11 14 20 22 25 24 22
50 54 54 53 52 49 50 51 51 49 48 46 46 43 42 42 37 44 37 35 36 35 32 30 28 28 26 24 22 19 17 16 15 15 15 12 11 8 9 9 12 14 19 20 22 23 23
53 52 56 56 56 55 52 52 52 52 50 49 47 46 44 43 41 40 44 40 37 38 37 33 32 29 28 29 25 23 22 21 19 19 19 17 14 13 11 12 13 13 16 19 21 21 23
57 56 54 58 59 59 57 54 54 54 54 51 49 49 47 45 42 42 43 41 41 41 39 37 35 34 31 31 30 28 27 25 25 23 20 19 20 18 16 15 15 15 15 18 20 23 22
61 60 59 57 61 61 60 60 58 57 56 55 53 48 47 47 46 41 44 43 42 39 41 42 37 37 36 35 34 32 31 30 30 29 23 22 23 21 18 16 17 18 18 20 23 24 24
64 65 64 62 61 63 63 63 62 61 59 58 58 53 50 50 50 48 44 43 43 41 39 35 40 40 38 39 38 36 36 33 31 31 28 25 23 21 18 17 19 23 22 24 26 23 24
65 66 68 70 67 66 67 68 67 66 64 61 60 57 53 52 53 51 50 46 45 43 35 37 33 35 43 45 42 41 40 38 35 32 30 25 24 21 19 23 25 23 24 25 24 23 22
69 70 71 74 76 79 74 70 71 70 69 66 63 61 57 55 54 54 52 52 47 44 41 36 38 34 38 45 45 45 44 44 38 33 31 25 22 20 25 27 25 23 23 24 24 21 19
75 75 77 78 80 82 84 84 75 75 73 71 68 64 62 59 56 55 53 49 46 47 49 41 41 43 35 40 40 38 39 39 33 32 29 25 23 25 27 26 23 22 21 23 22 17 15
75 74 74 75 77 80 81 84 83 77 76 75 72 68 66 63 59 58 55 51 46 43 44 40 39 39 39 38 37 35 32 31 30 27 29 28 25 27 28 25 23 19 20 21 19 17 18
64 63 62 60 59 58 58 63 72 78 78 76 76 74 70 66 63 60 57 52 48 44 45 39 40 41 36 37 32 33 31 31 29 29 29 25 26 28 26 22 25 19 18 19 19 20 23
54 53 50 48 48 48 48 48 51 57 69 76 77 76 73 71 67 63 59 53 48 45 49 41 40 42 35 35 33 34 33 31 31 31 31 30 30 30 28 27 23 18 17 18 20 23 24
53 52 48 45 45 44 44 44 45 49 61 69 75 78 75 75 72 67 62 55 52 51 44 41 36 41 35 34 31 32 33 30 32 33 31 31 32 30 27 26 19 16 15 15 18 20 19
53 50 46 44 43 43 42 42 42 43 56 68 74 80 78 77 75 71 66 59 57 52 42 39 35 33 33 33 31 32 33 32 33 31 27 29 33 31 26 20 16 14 16 14 14 15 18
59 53 48 44 42 43 42 40 41 43 47 56 72 81 79 78 76 73 68 64 56 50 43 40 36 32 31 35 32 33 30 29 29 28 29 29 29 29 24 20 18 18 19 19 21 24 22
67 62 54 47 42 43 41 40 39 42 46 45 55 78 78 81 78 75 71 65 57 51 47 42 38 32 28 29 31 31 31 28 27 26 25 25 31 26 23 22 21 21 19 18 17 15 14
49 62 58 50 46 42 40 39 39 39 42 44 46 69 73 80 80 78 72 64 56 52 47 43 40 33 28 29 30 30 28 28 27 27 28 26 26 23 23 24 21 20 21 19 18 22 16
46 50 53 50 47 43 41 38 39 40 40 48 57 59 72 80 80 78 73 64 57 52 47 43 40 36 30 31 31 31 28 26 26 26 25 24 22 21 27 23 22 21 22 20 19 18 18
37 48 52 46 45 42 40 39 39 39 43 61 59 50 72 81 81 79 72 63 57 52 49 45 40 36 34 36 35 32 28 26 25 25 24 22 19 22 23 21 22 21 18 20 20 18 17
39 45 51 47 42 42 38 39 38 39 46 57 60 61 68 82 80 80 71 62 58 51 49 45 39 38 39 41 36 31 28 26 25 25 23 20 19 21 14 13 15 18 18 16 15 16 19
30 41 52 49 43 43 39 39 38 42 51 65 56 59 76 81 82 77 71 64 57 53 50 45 40 40 42 42 37 34 30 28 29 27 24 23 22 20 21 21 18 15 12 12 13 15 15
29 38 54 51 48 47 43 39 40 44 54 62 57 58 76 79 80 75 71 65 59 55 51 46 42 42 43 40 33 28 27 27 26 28 26 25 23 19 18 17 15 10 10 10 12 13 9
30 40 54 51 50 46 44 40 43 45 57 64 54 59 77 79 78 74 70 65 61 58 51 47 46 44 41 38 30 28 28 28 26 25 25 24 21 19 16 14 12 10 9 9 10 9 5
32 44 52 46 49 47 43 41 42 50 65 64 61 59 74 79 75 74 72 66 62 56 51 49 48 44 41 36 34 29 27 26 22 21 23 22 20 18 14 13 12 11 9 9 10 8 6
35 43 43 44 47 44 41 42 43 54 67 63 53 57 77 77 76 75 71 65 62 57 53 51 48 46 42 40 37 35 33 31 30 28 26 23 19 16 14 14 13 13 10 10 10 7 5
36 37 37 41 44 41 39 40 51 56 60 58 53 65 78 76 75 76 69 65 62 58 56 52 49 48 45 43 40 40 41 38 36 31 27 22 18 15 13 13 13 13 10 11 10 7 5
34 34 35 38 40 37 37 46 53 70 64 58 64 73 77 74 76 73 67 65 63 60 58 55 51 48 46 45 43 41 40 38 34 29 26 21 17 14 13 12 12 13 10 10 8 7 6
32 33 33 35 35 36 34 45 65 72 63 54 52 74 73 74 76 71 69 69 64 61 61 57 52 48 46 46 43 42 41 38 31 29 27 22 17 12 9 9 11 11 10 10 8 7 5
30 32 35 32 31 31 33 64 68 76 66 55 59 67 66 75 72 69 69 68 63 63 61 59 54 47 48 46 44 39 36 34 31 30 27 23 18 13 9 9 9 10 9 8 10 7 5
Wind_Direction
264 265 263 259 254 249 249 249 245 244 240 240 240 240 238 237 230 235 229 231 229 222 221 219 211 212 212 216 217 218 226 232 236 239 234 246 258 284 291 268 261 252 251 260 265 271 274
260 261 263 262 258 252 247 246 246 243 241 239 240 239 240 236 231 225 231 231 230 227 222 222 223 218 218 223 222 225 230 239 247 252 252 246 257 266 278 274 256 253 261 267 270 274 270
265 258 258 259 258 256 249 245 243 242 240 239 237 239 239 236 231 226 225 227 232 230 227 224 225 227 225 227 228 233 236 243 253 260 264 260 251 253 262 268 274 261 262 270 273 270 269
268 263 256 256 256 255 253 246 242 239 239 238 236 234 235 235 231 224 228 226 232 231 227 228 226 230 230 232 233 236 243 249 258 261 269 273 255 252 255 263 270 267 259 261 261 267 265
268 264 261 254 253 254 252 251 245 239 236 236 235 234 233 233 229 228 222 225 230 233 230 230 230 232 233 237 238 240 246 254 256 262 269 271 254 251 254 257 267 269 268 262 274 267 266
270 267 263 258 253 251 252 250 248 243 237 234 235 233 232 231 231 230 229 221 225 233 230 233 232 233 235 238 242 246 249 252 256 257 264 267 247 248 250 251 255 260 269 274 273 278 281
271 270 270 269 262 256 252 251 248 245 241 235 232 233 231 230 231 230 228 227 228 232 230 230 232 233 237 239 242 245 250 252 255 253 261 259 241 242 236 246 253 264 266 275 280 281 281
270 269 268 267 268 269 259 250 249 246 240 237 233 230 230 229 229 231 229 230 235 231 233 232 229 236 233 236 239 244 247 250 252 252 253 249 238 234 236 245 257 267 270 273 277 279 281
273 271 269 266 263 262 261 259 248 244 241 235 232 228 228 227 228 229 230 230 231 230 229 232 231 234 245 236 237 242 243 243 243 240 242 242 232 229 236 247 256 262 267 269 275 278 280
276 273 270 267 263 260 258 256 254 243 238 234 229 227 224 225 226 226 228 226 226 226 227 224 224 229 240 233 233 234 235 233 229 232 237 236 229 228 233 244 251 257 261 267 272 280 277
274 269 265 262 260 256 253 253 251 246 236 229 226 224 220 221 223 224 225 223 223 223 226 225 222 224 238 232 229 231 228 228 223 227 234 237 228 225 235 242 246 253 260 265 275 280 287
264 262 260 259 255 252 248 248 245 236 233 227 220 220 218 216 217 221 222 220 218 220 223 224 221 224 236 228 227 226 226 226 222 223 224 223 221 224 229 240 247 251 258 266 271 281 293
259 260 257 253 250 249 244 242 242 233 220 219 216 215 214 213 213 216 217 216 214 218 219 221 218 222 231 224 226 224 225 227 225 221 221 229 222 226 230 236 244 250 256 259 272 287 278
255 254 252 247 245 244 240 235 234 230 221 214 208 209 208 209 210 212 213 212 213 217 214 217 215 221 224 220 224 219 220 219 220 224 227 234 226 231 234 236 240 248 253 244 267 273 283
249 246 245 240 239 237 235 229 227 226 224 218 206 205 201 205 207 209 210 211 212 212 211 210 213 218 220 218 220 213 213 217 219 221 220 220 223 224 233 233 231 241 251 259 272 279 285
241 239 238 234 235 231 232 226 224 222 220 213 205 202 195 201 203 207 207 209 209 209 207 207 211 218 222 222 216 210 212 210 208 202 204 209 221 220 226 227 228 234 248 261 279 279 290
240 234 232 228 230 226 226 223 222 218 215 201 190 202 191 197 200 203 205 205 203 206 204 206 209 216 216 215 208 207 206 204 204 196 199 202 215 215 219 226 236 240 249 262 266 279 283
229 224 225 222 224 220 218 218 220 214 206 192 191 201 191 194 198 200 201 201 198 202 201 203 207 210 210 204 200 200 200 196 203 205 204 203 208 218 221 226 233 236 239 253 266 278 292
234 218 211 213 215 212 213 212 218 210 199 187 181 181 192 191 194 197 197 194 195 198 197 197 201 204 204 195 193 194 196 197 199 201 195 196 206 217 211 215 219 226 238 253 263 281 290
230 217 205 202 203 205 204 209 214 202 194 184 185 194 192 190 192 193 193 188 192 195 195 196 199 200 197 194 195 195 194 198 194 191 193 194 197 199 198 210 221 228 237 254 271 287 297
225 216 200 193 197 197 196 206 209 196 188 180 181 191 190 188 190 191 188 185 188 190 192 192 196 199 197 196 195 197 197 196 194 189 191 189 188 192 192 200 214 235 251 267 281 291 297
222 207 193 192 194 194 194 204 202 190 187 184 185 187 190 185 190 186 184 182 186 189 189 189 194 192 193 195 200 200 196 200 198 188 188 185 187 193 203 215 227 243 253 272 289 299 293
215 194 188 191 193 190 194 201 194 187 184 181 185 187 189 186 187 183 179 181 185 187 187 189 188 188 185 188 188 185 190 193 188 188 181 182 191 201 209 221 232 244 259 283 298 302 250
189 184 185 187 190 190 194 198 186 186 178 173 181 183 189 186 182 179 178 181 186 184 185 188 187 186 180 180 176 175 173 168 172 177 181 189 198 207 219 232 240 253 264 285 299 291 243
174 176 179 186 189 188 194 190 183 183 183 178 175 183 188 183 180 176 177 180 184 184 183 182 184 183 178 171 172 171 168 170 179 184 186 192 199 214 230 239 244 253 267 285 294 263 235
168 173 177 184 185 189 190 184 181 181 177 181 184 190 185 179 177 177 177 178 182 181 181 178 182 183 175 174 175 181 179 180 183 184 186 191 202 214 227 238 245 256 268 281 289 229 226
166 171 175 181 186 189 185 182 181 169 172 176 182 187 181 178 177 176 176 178 181 180 179 176 180 181 176 175 176 181 186 187 185 183 185 189 200 213 223 233 242 251 265 282 263 218 222
162 165 171 180 187 185 189 189 177 173 171 172 172 184 178 178 178 176 176 178 178 181 180 177 180 182 176 178 184 188 189 189 184 183 187 191 201 202 206 227 245 254 261 280 228 212 226
161 168 178 183 185 190 192 179 175 179 173 165 179 178 183 180 176 175 177 179 180 181 181 179 182 184 181 186 191 192 189 184 184 188 189 194 193 204 216 238 256 267 265 268 215 217 242
Height
5737 5738 5740 5743 5746 5749 5752 5756 5760 5765 5769 5773 5777 5782 5786 5791 5795 5799 5804 5810 5814 5819 5823 5827 5830 5834 5837 5840 5842 5844 5846 5848 5849 5850 5851 5853 5854 5854 5854 5855 5855 5855 5855 5854 5854 5854 5856
5725 5726 5728 5729 5733 5737 5740 5744 5749 5754 5759 5763 5768 5773 5777 5782 5787 5792 5797 5802 5808 5813 5817 5822 5826 5829 5833 5835 5837 5840 5842 5844 5846 5848 5849 5851 5852 5852 5852 5852 5852 5852 5852 5852 5851 5851 5851
5709 5713 5714 5717 5719 5722 5727 5732 5737 5742 5747 5753 5758 5763 5768 5773 5779 5783 5789 5794 5801 5806 5811 5816 5820 5824 5828 5830 5833 5835 5838 5840 5842 5844 5846 5849 5850 5850 5849 5848 5848 5849 5849 5848 5848 5848 5847
5693 5695 5700 5703 5705 5708 5712 5718 5724 5730 5735 5741 5748 5754 5760 5764 5770 5774 5781 5787 5793 5798 5804 5809 5814 5818 5823 5825 5828 5830 5833 5835 5837 5839 5842 5845 5846 5846 5845 5845 5846 5846 5846 5844 5843 5842 5842
5676 5679 5682 5687 5690 5693 5698 5703 5710 5716 5723 5729 5736 5744 5750 5755 5762 5767 5771 5779 5785 5791 5796 5801 5807 5812 5816 5819 5821 5825 5827 5830 5832 5835 5837 5839 5840 5842 5843 5843 5843 5842 5842 5841 5839 5838 5838
5656 5658 5662 5668 5673 5677 5681 5687 5694 5701 5708 5717 5723 5732 5739 5745 5751 5758 5764 5770 5777 5783 5788 5794 5799 5805 5809 5813 5815 5819 5820 5823 5827 5831 5833 5834 5835 5837 5839 5840 5840 5837 5838 5836 5834 5835 5834
5638 5638 5638 5640 5650 5658 5664 5669 5676 5684 5693 5702 5711 5719 5727 5735 5741 5747 5756 5762 5770 5776 5781 5787 5794 5797 5801 5805 5808 5811 5814 5817 5820 5826 5828 5830 5831 5833 5834 5833 5834 5835 5834 5832 5831 5831 5830
5620 5620 5621 5622 5623 5625 5638 5650 5656 5665 5675 5685 5695 5705 5714 5722 5730 5737 5744 5753 5760 5768 5774 5778 5784 5791 5794 5796 5800 5803 5807 5811 5816 5820 5822 5825 5827 5828 5828 5828 5831 5831 5831 5829 5828 5827 5826
5598 5598 5599 5601 5603 5607 5610 5618 5635 5644 5654 5666 5678 5689 5700 5710 5719 5726 5734 5744 5750 5757 5764 5770 5776 5783 5786 5789 5792 5797 5799 5804 5809 5812 5817 5819 5821 5821 5823 5825 5827 5827 5828 5826 5826 5825 5824
5572 5573 5574 5575 5578 5581 5585 5592 5602 5619 5631 5645 5659 5672 5684 5697 5708 5715 5724 5734 5742 5749 5755 5762 5769 5775 5776 5781 5785 5790 5793 5798 5802 5808 5811 5812 5814 5816 5818 5821 5822 5823 5824 5823 5823 5823 5823
5548 5549 5550 5552 5555 5558 5563 5568 5577 5591 5607 5623 5639 5653 5667 5683 5695 5704 5715 5724 5733 5741 5745 5754 5759 5766 5770 5775 5782 5784 5787 5791 5797 5801 5806 5811 5811 5813 5815 5818 5817 5821 5821 5821 5821 5821 5820
5529 5530 5533 5536 5539 5543 5548 5553 5559 5569 5583 5600 5618 5634 5651 5667 5681 5692 5702 5713 5723 5732 5733 5744 5751 5757 5764 5768 5774 5777 5781 5786 5790 5795 5798 5802 5805 5807 5809 5812 5814 5817 5818 5819 5819 5818 5818
5512 5514 5518 5522 5526 5530 5534 5540 5545 5552 5563 5577 5596 5615 5635 5650 5665 5678 5690 5702 5713 5717 5729 5738 5745 5752 5757 5761 5767 5770 5775 5780 5785 5789 5792 5797 5800 5801 5805 5808 5812 5814 5815 5817 5818 5816 5817
5495 5499 5503 5509 5514 5518 5523 5528 5534 5540 5547 5559 5576 5595 5618 5635 5650 5664 5677 5690 5701 5712 5725 5732 5739 5745 5750 5755 5760 5764 5769 5773 5779 5784 5789 5793 5796 5797 5802 5807 5809 5810 5813 5816 5816 5816 5814
5476 5482 5489 5495 5501 5506 5511 5518 5524 5530 5536 5546 5560 5579 5603 5618 5636 5650 5664 5677 5694 5708 5718 5726 5733 5738 5743 5748 5754 5758 5765 5771 5775 5780 5785 5788 5794 5795 5799 5803 5806 5807 5808 5810 5810 5808 5807
5451 5462 5472 5481 5488 5494 5501 5508 5514 5520 5526 5537 5550 5565 5591 5602 5621 5638 5653 5672 5687 5700 5710 5719 5727 5733 5739 5745 5750 5755 5760 5766 5770 5773 5778 5785 5789 5792 5796 5799 5801 5804 5805 5806 5805 5805 5805
5428 5441 5454 5466 5476 5483 5490 5497 5504 5511 5518 5530 5544 5556 5576 5592 5608 5625 5646 5667 5682 5692 5703 5713 5722 5728 5734 5740 5746 5752 5758 5762 5765 5770 5774 5780 5785 5789 5793 5794 5798 5800 5801 5802 5803 5801 5800
5412 5422 5437 5451 5462 5471 5479 5488 5494 5502 5511 5523 5534 5545 5564 5580 5602 5620 5639 5659 5673 5685 5697 5707 5715 5723 5730 5737 5743 5747 5753 5758 5763 5768 5772 5777 5781 5785 5789 5790 5794 5795 5796 5798 5799 5798 5794
5400 5409 5422 5438 5450 5460 5470 5478 5485 5494 5504 5515 5528 5542 5555 5571 5590 5612 5632 5651 5665 5678 5690 5700 5710 5718 5725 5732 5737 5743 5749 5755 5760 5765 5770 5774 5777 5782 5785 5788 5790 5791 5793 5794 5794 5793 5790
5388 5398 5411 5426 5439 5450 5460 5469 5476 5486 5496 5509 5523 5536 5548 5563 5584 5604 5626 5646 5659 5673 5685 5695 5704 5713 5720 5727 5734 5741 5747 5751 5756 5762 5768 5771 5775 5780 5784 5787 5787 5789 5789 5790 5790 5789 5786
5380 5389 5401 5415 5429 5441 5452 5461 5469 5479 5490 5503 5515 5528 5541 5560 5579 5601 5620 5640 5654 5666 5679 5689 5699 5709 5717 5724 5730 5736 5743 5748 5753 5759 5764 5768 5773 5777 5779 5781 5783 5785 5787 5787 5785 5784 5783
5373 5380 5393 5408 5421 5433 5445 5454 5461 5473 5485 5498 5511 5527 5541 5560 5576 5596 5614 5634 5648 5661 5674 5684 5695 5703 5712 5722 5731 5737 5743 5747 5752 5757 5761 5766 5770 5774 5777 5779 5781 5783 5783 5782 5781 5780 5778
5366 5374 5388 5403 5416 5428 5439 5448 5457 5469 5481 5494 5510 5522 5536 5553 5571 5592 5614 5630 5643 5654 5668 5679 5689 5698 5708 5720 5728 5734 5738 5744 5751 5755 5760 5765 5768 5771 5774 5776 5778 5779 5779 5779 5778 5777 5776
5362 5373 5387 5400 5412 5423 5434 5443 5454 5464 5476 5492 5507 5519 5533 5549 5572 5589 5607 5624 5637 5651 5662 5674 5687 5697 5707 5716 5722 5729 5736 5742 5748 5753 5758 5762 5765 5768 5770 5773 5774 5775 5775 5775 5775 5774 5773
5364 5376 5388 5399 5410 5421 5430 5440 5450 5460 5475 5491 5503 5515 5526 5547 5565 5585 5603 5620 5632 5646 5659 5671 5684 5694 5701 5710 5718 5725 5731 5738 5743 5748 5754 5758 5762 5765 5768 5770 5771 5771 5772 5772 5771 5771 5771
5369 5380 5390 5399 5410 5419 5428 5438 5447 5457 5472 5488 5501 5510 5525 5546 5566 5581 5600 5616 5630 5643 5656 5669 5681 5690 5698 5706 5713 5719 5724 5733 5738 5745 5751 5756 5760 5763 5765 5767 5767 5768 5769 5770 5769 5768 5769
5374 5383 5392 5401 5410 5418 5427 5435 5444 5457 5470 5485 5496 5509 5528 5546 5564 5581 5599 5613 5626 5641 5654 5667 5678 5688 5695 5703 5711 5717 5724 5730 5737 5744 5750 5754 5757 5760 5761 5763 5764 5765 5766 5767 5766 5769 5766
5378 5387 5395 5402 5410 5417 5425 5432 5443 5457 5471 5485 5500 5514 5532 5547 5563 5579 5595 5608 5623 5638 5651 5664 5675 5684 5692 5701 5708 5714 5721 5728 5736 5742 5746 5751 5755 5758 5760 5761 5761 5762 5763 5764 5764 5763 5764
5383 5390 5396 5403 5410 5417 5423 5431 5445 5459 5470 5484 5502 5522 5535 5548 5567 5581 5595 5609 5625 5637 5650 5662 5673 5682 5690 5697 5705 5713 5721 5728 5735 5739 5744 5749 5753 5756 5758 5758 5758 5758 5759 5759 5760 5761 5762